Location: Huesca
(42.1318°N, 0.4078°W)
Time: 11:25:53
(UTC+02:00)

Courier 1B Rocket - Visible Passes

Search period start: 15 July 2024 00:00
Search period end: 25 July 2024 00:00
Orbit: 920 x 1201 km, 28.2° (Epoch: 14 July)

Date Brightness Start Highest point End Pass type
(mag) Time Alt. Az. Time Alt. Az. Time Alt. Az.
15 Jul 6.6 22:29:26 10° WSW 22:34:24 21° SSW 22:38:51 11° SSE visible
16 Jul 6.9 23:22:54 10° SW 23:25:51 13° SSW 23:27:38 12° S visible
17 Jul 6.8 22:20:35 10° WSW 22:25:02 17° SSW 22:29:18 10° SSE visible
19 Jul 7.1 22:12:10 10° SW 22:15:37 14° SSW 22:18:58 10° S visible
21 Jul 7.4 22:05:31 10° SSW 22:06:08 10° SSW 22:06:46 10° SSW visible
